Regional Weather Roundup
Issued by NWS Charleston, SC

Home | Current Version | Previous Version | Text Only | Print | Product List | Glossary On
Versions: 1 2 3 4 5 6 7 8 9 10 11 12 13 14 15 16 17 18 19 20 21 22 23 24 25 26 27 28 29 30 31 32 33 34 35 36 37 38 39 40 41 42 43 44 45 46 47 48 49 50
000
ASUS42 KCHS 271928
RWRCHS

REGIONAL WEATHER ROUNDUP
NATIONAL WEATHER SERVICE CHARLESTON SC
300 PM EDT TUE SEP 27 2016

NOTE: "FAIR" INDICATES FEW OR NO CLOUDS BELOW 12,000 FEET WITH NO
SIGNIFICANT WEATHER AND/OR OBSTRUCTIONS TO VISIBILITY.

NOT ALL STATIONS ARE QUALITY CONTROLLED. USE DATA WITH CAUTION...
ESPECIALLY DEWPOINT OBSERVATIONS.

SCZ027-030-031-034>040-042>050-272000-
...SOUTHEAST SOUTH CAROLINA...

CITY           SKY/WX    TMP DP  RH WIND       PRES   REMARKS
N CHARLESTON   MOSUNNY   86  67  52 CALM      29.88F
WATERFRONT PRK   N/A     81  71  71 SE8       29.88F
MOUNT PLEASANT FAIR      84  70  61 SE5       29.88F
JOHNS ISLAND   FAIR      84  70  61 E7        29.88F
PINOPOLIS        N/A     81  72  74 CALM      29.83F
MONCKS CORNER  FAIR      84  66  54 N3        29.88F
SUMMERVILLE    NOT AVBL
BEAUFORT MCAS  MOSUNNY   85  68  56 NE6       29.89F
BEAUFORT ARPT  MOCLDY    84  68  58 CALM      29.88F
HILTON HEAD IS MOSUNNY   90  75  62 E6        29.90F HX 100
WALTERBORO     MOCLDY    86  68  54 NE3       29.89F
ALLENDALE      FAIR      88  68  51 W3        29.89F HX  91

...SOUTHERN MIDLANDS AND PEE DEE...

CITY           SKY/WX    TMP DP  RH WIND       PRES   REMARKS
GEORGETOWN     MOCLDY    82  72  69 SE10      29.89F
KINGSTREE      FAIR      86  64  48 CALM      29.88F
ORANGEBURG     MOSUNNY   86  66  51 N3        29.90F
BARNWELL       NOT AVBL
AIKEN          FAIR      86  64  48 CALM      29.93F
MANNING        FAIR      81  68  65 CALM      29.89F
COLUMBIA       MOSUNNY   86  65  49 NE5       29.88F
SUMTER         SUNNY     86  66  51 SW5       29.87F
FLORENCE       MOSUNNY   84  68  58 W3        29.89F
MYRTLE BEACH   MOSUNNY   84  66  54 SE7       29.90F
N MYRTLE BEACH SUNNY     85  65  51 CALM      29.88F

$$

GAZ063-065-086>088-099>101-113>116-118-119-134>141-150-272000-
...SOUTHEAST GEORGIA...

CITY           SKY/WX    TMP DP  RH WIND       PRES   REMARKS
SAVANNAH ARPT  PTSUNNY   88  66  48 VRB3      29.89F HX  90
HUNTER AAF     MOSUNNY   86  76  70 NE2       29.87F HX  96
FORT STEWART   MOSUNNY   85  68  56 N1        29.87F
STATESBORO     SUNNY     87  68  52 CALM      29.90F HX  90
SYLVANIA       NOT AVBL
CLAXTON        FAIR      88  69  54 CALM      29.90F HX  92

...CSRA...CENTRAL AND FAR SOUTHEAST GEORGIA...

CITY           SKY/WX    TMP DP  RH WIND       PRES   REMARKS
THOMSON        MOSUNNY   88  70  55 CALM      29.94F HX  93
AUGUSTA-BUSH   MOSUNNY   87  67  51 VRB5      29.89F HX  90
AUGUSTA-DANIEL SUNNY     89  61  38 S6        29.91F
SWAINSBORO     FAIR      86  64  48 CALM      29.91F
VIDALIA        MOSUNNY   88  72  58 N5        29.91F HX  94
EASTMAN        FAIR      88  52  28 W3        29.93F
HAZLEHURST     MOCLDY    89  69  50 SW5       29.90F HX  93
ALMA           PTSUNNY   86  69  56 NE5       29.91F HX  90
WAYCROSS       SUNNY     92  69  48 E6        29.90F HX  97
JESUP          FAIR      90  72  55 CALM      29.90F HX  96
BAXLEY         PTSUNNY   88  72  58 CALM      29.90F HX  94
BRUNSWICK      PTSUNNY   86  75  70 E8        29.90F HX  95
SAINT SIMONS   SUNNY     84  72  67 E12       29.90F

$$

SCZ027-028-034-036>038-045-046-048>050-GAZ119-141-272000-
...LAKE AND SUPPLEMENTAL COASTAL OBSERVATIONS...

STATION/POSITION TIME  TEMP    WIND        PRES    WAVE   SWELL
                       AIR SEA DIR/SP/G            HT/PER HT/PER/DIR
                 (UTC) (F)     (DEG/KT/KT) (MB)    (FT/S) (FT/S/D)
WINYAH BAY       1845   80     100/  6     1011.0F
LAKE MURRAY      1850   84     190/  5/  7 1011.5F
ACE BASIN NERRS  1845   86     130/  1     1012.0F
FORT PULASKI     1900   80 82   80/  7/  8 1012.7
SAPELO ISLAND    1900   86      80/  7     1012.0

$$

ANZ835-935-AMZ111-154-330-350-352-354-370-450-454-472-272000-
...C-MAN AND BUOY OBSERVATIONS...

STATION/POSITION TIME  TEMP    WIND        PRES    WAVE   SWELL
                       AIR SEA DIR/SP/G            HT/PER HT/PER/DIR
                 (UTC) (F)     (DEG/KT/KT) (MB)    (FT/S) (FT/S/D)
BUOY 41004       1850   80 82   40/  8/ 10 1011.6F   2/ 8   2/ 90/ 8
BUOY 41008       1850   80 82   20/  6/  8 1012.5F   2/ 9   2/100/ 9
FOLLY BEACH CMAN 1900   79     110/  5/  6 1012.5F
CAPERS NEARSHORE 1908   79 82  100/  6/ 10 1011.9F
FRIPP NEARSHORE  1908   80 81  110/  8/ 10 1012.2F


STATION/POSITION TIME  TEMP    WIND        PRES    WAVE   SWELL
                       AIR SEA DIR/SP/G            HT/PER HT/PER/DIR
                 (UTC) (F)     (DEG/KT/KT) (MB)    (FT/S) (FT/S/D)
5E ST. MARYS GA  1901      83                N/A     2/13
FRYING PAN BUOY  1910   80 82   30/  4/  6 1011.8
BUOY 41025       1850   77 84  120/ 19/ 21 1012.2F   5/ 6   2/140/12
CAPE LOOKOUT NC  1900   78      90/  8/ 10 1012.2F
BUOY 41002       1850   79 83  170/ 10/ 12 1011.8F   6/ 6   5/100/ 6
BUOY 41010       NOT AVBL
ST AUGUSTINE FL  1900   80 85   30/  9/ 10 1013.1F


$$



USA.gov is the U.S. government's official web portal to all federal, state and local government web resources and services.